Weather History for West Palm Beach, FL

Change the Weather History Date:

Thursday, November 7, 2013

  Actual Average Record
Temperature  
Mean Temperature 79 °F 74 °F  
Max Temperature 87 °F 81 °F 89 °F (1958)
Min Temperature 70 °F 67 °F 49 °F (1970)
Degree Days  
Heating Degree Days 0 0  
Month to date heating degree days 0 0  
Since 1 July heating degree days 0 1  
Cooling Degree Days 14 9  
Month to date cooling degree days 102 68  
Year to date cooling degree days 3950 3689  
Growing Degree Days 28 (Base 50)    
Moisture  
Dew Point 68 °F    
Average Humidity 71    
Maximum Humidity 90    
Minimum Humidity 51    
Precipitation  
Precipitation 0.00 in 0.18 in 5.33 in (1972)
Month to date precipitation T 1.21  
Year to date precipitation 57.86 55.41  
Snow  
Snow 0.00 in - - ()
Month to date snowfall 0.0  
Since 1 July snowfall 0.0  
Since 1 September snowfall 0.0  
Snow Depth 0.00 in    
Sea Level Pressure  
Sea Level Pressure 29.97 in    
Wind  
Wind Speed 7 mph (North)    
Max Wind Speed 14 mph    
Max Gust Speed 16 mph    
Visibility 10 miles    
Events      
T = Trace of Precipitation, MM = Missing Value Source: NWS Daily Summary

Daily Weather History Graph

Daily Weather History Graph

Search for Another Location

Airport:

Trip Planner

Search our weather history database for the weather conditions in past years. The results will help you decide how hot, cold, wet, or windy it might be!

Date:

Astronomy

Nov. 07, 2013 Rise Set
Actual Time 6:34 AM EST 5:33 PM EST
Civil Twilight 6:09 AM EST 5:57 PM EST
Nautical Twilight 5:42 AM EST 6:25 PM EST
Astronomical Twilight 5:14 AM EST 6:52 PM EST
Moon 10:36 AM EST (11/7) 9:46 PM EST (11/7)
Length of Visible Light 11h 47m
Length of Day
10h 59m
Waxing Crescent, 22% of the Moon is Illuminated
Nov 7
Waxing Crescent
Nov 10
First Quarter
Nov 17
Full
Nov 25
Last Quarter
Dec 2
New

Hourly Weather History & Observations

Time (EST) Temp. Heat Index Dew Point Humidity Pressure Visibility Wind Dir Wind Speed Gust Speed Precip Events Conditions
12:53 AM 72.0 °F - 66.0 °F 81% 30.01 in 10.0 mi NW 3.5 mph - N/A   Scattered Clouds
1:53 AM 72.0 °F - 66.9 °F 84% 29.99 in 10.0 mi Calm Calm - N/A   Scattered Clouds
2:53 AM 71.1 °F - 66.9 °F 87% 29.97 in 10.0 mi Calm Calm - N/A   Partly Cloudy
3:53 AM 71.1 °F - 66.9 °F 87% 29.96 in 10.0 mi NNW 3.5 mph - N/A   Partly Cloudy
4:53 AM 70.0 °F - 66.9 °F 90% 29.96 in 10.0 mi NW 4.6 mph - N/A   Scattered Clouds
5:53 AM 70.0 °F - 66.9 °F 90% 29.97 in 10.0 mi NW 4.6 mph - N/A   Scattered Clouds
6:53 AM 71.1 °F - 68.0 °F 90% 29.98 in 10.0 mi NNW 4.6 mph - N/A   Mostly Cloudy
7:53 AM 75.0 °F - 71.1 °F 87% 30.00 in 10.0 mi NNW 5.8 mph - N/A   Mostly Cloudy
8:53 AM 80.1 °F 83.2 °F 70.0 °F 71% 30.01 in 10.0 mi North 8.1 mph - N/A   Mostly Cloudy
9:53 AM 82.9 °F 85.8 °F 68.0 °F 60% 30.02 in 10.0 mi North 9.2 mph - N/A   Mostly Cloudy
10:53 AM 82.9 °F 86.5 °F 69.1 °F 63% 30.01 in 10.0 mi NNW 6.9 mph - N/A   Mostly Cloudy
11:53 AM 84.9 °F 88.2 °F 68.0 °F 57% 29.99 in 10.0 mi NNE 6.9 mph - N/A   Mostly Cloudy
12:53 PM 86.0 °F 88.8 °F 66.9 °F 53% 29.96 in 10.0 mi North 10.4 mph - N/A   Mostly Cloudy
1:53 PM 82.9 °F 85.4 °F 66.9 °F 58% 29.94 in 10.0 mi NNE 9.2 mph - N/A   Mostly Cloudy
2:53 PM 82.9 °F 85.8 °F 68.0 °F 60% 29.93 in 10.0 mi NE 9.2 mph - N/A   Mostly Cloudy
3:53 PM 82.9 °F 85.0 °F 66.0 °F 56% 29.93 in 10.0 mi NNE 11.5 mph - N/A   Mostly Cloudy
4:53 PM 81.0 °F 84.1 °F 69.1 °F 67% 29.94 in 10.0 mi NNE 10.4 mph - N/A   Mostly Cloudy
5:53 PM 79.0 °F - 69.1 °F 72% 29.96 in 10.0 mi North 10.4 mph - N/A   Mostly Cloudy
6:53 PM 77.0 °F - 69.1 °F 76% 29.97 in 10.0 mi North 9.2 mph - N/A   Scattered Clouds
7:53 PM 77.0 °F - 68.0 °F 74% 29.98 in 10.0 mi North 5.8 mph - N/A   Scattered Clouds
8:53 PM 75.9 °F - 66.9 °F 74% 29.98 in 10.0 mi North 4.6 mph - N/A   Scattered Clouds
9:53 PM 73.0 °F - 66.9 °F 81% 29.97 in 10.0 mi NNW 5.8 mph - N/A   Partly Cloudy
10:53 PM 73.9 °F - 68.0 °F 82% 29.97 in 10.0 mi NNW 9.2 mph - N/A   Partly Cloudy
11:53 PM 73.9 °F - 68.0 °F 82% 29.96 in 10.0 mi NNW 8.1 mph - N/A   Scattered Clouds